Location: York
(31.8935°S, 116.7682°E)
Time: 01:01:10
(UTC+08:00)

DX 1 - Pass Details

Date: 07 August 2021
Orbit: 618 x 631 km, 98.4° (Epoch: 23 September)

Event Time Altitude Azimuth Distance (km) Brightness Sun altitude
Rises 19:28:53 0° 1° (N) 2,885 ? -23.2°
Reaches altitude 10° 19:31:07 10° 356° (N) 1,986 ? -23.7°
Maximum altitude 19:35:18 49° 280° (W) 809 ? -24.5°
Drops below altitude 10° 19:39:32 10° 205° (SSW) 2,009 ? -25.4°
Sets 19:41:48 0° 199° (SSW) 2,923 ? -25.9°
